SCP
0 0 0 0 0 0 0 0 0 0 0 0 0 0 0 1 1 1 1 0 0 0 0 0 0 0 0 0 0 0 0 0 0 0 0 0 0 0 0 0 0 0 0 0
0 0 0 0 0 0 0 0 0 0 0 0 0 0 0 0 1 1 0 0 0 0 0 0 0 0 0 0 0 0 0 0 0 0 0 0 0 0 0 0 0 0 0 0
0 0 0 0 0 0 0 0 0 0 0 0 0 0 0 0 0 0 0 0 0 0 0 0 0 0 0 0 0 0 0 0 0 0 0 0 0 0 0 0 0 0 0 0
0 0 0 0 0 0 0 0 0 0 0 0 0 0 0 0 0 0 0 0 0 0 0 0 0 0 0 0 0 0 0 0 0 0 0 0 0 0 0 0 0 0 0 0
0 0 0 0 0 0 0 0 0 0 0 0 0 0 0 0 0 0 0 0 0 0 0 0 0 0 0 0 0 0 0 0 0 0 0 0 0 0 0 0 0 0 0 0
0 0 0 0 0 0 0 0 0 0 0 0 0 0 0 0 0 0 0 0 0 0 0 0 0 0 0 0 0 0 0 0 0 0 0 0 0 0 0 0 0 0 0 0
0 0 0 0 0 0 0 0 0 0 0 0 0 0 0 0 0 0 0 0 0 0 0 0 0 0 0 0 0 0 0 0 0 0 0 0 0 0 0 0 0 0 0 0
0 0 0 0 0 0 0 0 0 0 0 0 0 0 0 0 0 0 0 0 0 0 0 0 0 0 0 0 0 0 0 0 0 0 0 0 0 0 0 0 0 0 0 0
0 0 0 0 0 0 0 0 0 0 0 0 0 0 0 0 0 0 0 0 0 0 0 0 0 0 0 0 0 0 0 0 0 0 0 0 0 0 0 0 0 0 0 0
0 0 0 0 0 0 0 0 0 0 0 0 0 0 0 0 0 0 0 0 0 0 0 0 0 0 0 0 0 0 0 0 0 0 0 0 0 0 0 0 0 0 0 0
0 0 0 0 0 0 0 0 0 0 0 0 0 0 0 0 0 0 0 0 0 0 0 0 0 0 0 0 0 0 0 0 0 0 0 0 0 0 0 0 0 0 0 0
0 0 0 0 0 0 0 0 0 0 0 0 0 0 0 0 0 0 0 0 0 0 0 0 0 0 0 0 0 0 0 0 0 0 0 0 0 0 0 0 0 0 0 0
0 0 0 0 0 0 0 0 0 0 0 0 0 0 0 0 0 0 0 0 0 0 0 0 0 0 0 0 0 0 0 0 0 0 0 0 0 0 0 0 0 0 0 0
0 0 0 0 0 0 0 0 0 0 0 0 0 0 0 0 0 0 0 0 0 0 0 0 0 0 0 0 0 0 0 0 0 0 0 0 0 0 0 0 0 0 0 0
0 0 0 0 0 0 0 0 0 0 0 0 0 0 0 0 0 0 0 0 0 0 0 0 0 0 0 0 0 0 0 0 0 0 0 0 0 0 0 0 0 0 0 0
0 0 0 0 0 0 0 0 0 0 0 0 0 0 0 0 0 0 0 0 0 0 0 0 0 0 0 0 0 0 0 0 0 0 0 0 0 0 0 0 0 0 0 0
0 0 0 0 0 0 0 0 0 0 0 0 0 0 0 0 0 0 0 0 0 0 0 0 0 0 0 0 0 0 0 0 0 0 0 0 0 0 0 0 0 0 0 0
0 0 0 0 0 0 0 0 0 0 0 0 0 0 0 0 0 0 0 0 0 0 0 0 0 0 0 0 0 0 0 0 0 0 0 0 0 0 0 0 0 0 0 0
0 0 0 0 0 0 0 0 0 0 0 0 0 0 0 0 0 0 0 0 0 0 0 0 0 0 0 0 0 0 0 0 0 0 0 0 0 0 0 0 0 0 0 0
0 0 0 0 0 0 0 0 0 0 0 0 0 0 0 0 0 0 0 0 0 0 0 0 0 0 0 0 0 0 0 0 0 0 0 0 0 0 0 0 0 0 0 0
0 0 0 0 0 0 0 0 0 0 0 0 0 0 0 0 0 0 0 0 0 0 0 0 0 0 0 0 0 0 0 0 0 0 0 0 0 0 0 0 0 0 0 0
0 0 0 0 0 0 0 0 0 0 0 0 0 0 0 0 0 0 0 0 0 0 0 0 0 0 0 0 0 0 0 0 0 0 0 0 0 0 0 0 0 0 0 0
0 0 0 0 0 0 0 0 0 0 0 0 0 0 0 0 0 0 0 0 0 0 0 0 0 0 0 0 0 0 0 0 0 0 0 0 0 0 0 0 0 0 0 0
0 0 0 0 0 0 0 0 0 0 0 0 0 0 0 0 0 0 0 0 0 0 0 0 0 0 0 0 0 0 0 0 0 0 0 0 0 0 0 0 0 0 0 0
0 0 0 0 0 0 0 0 0 0 0 0 0 0 0 0 0 0 0 0 0 0 0 0 0 0 0 0 0 0 0 0 0 0 0 0 0 0 0 0 0 0 0 0
0 0 0 0 0 0 0 0 0 0 0 0 0 0 0 0 0 0 0 0 0 0 0 0 0 0 0 0 0 0 0 0 0 0 0 0 0 0 0 0 0 0 0 0
0 0 0 0 0 0 0 0 0 0 0 0 0 0 0 0 0 0 0 0 0 0 0 0 0 0 0 0 0 0 0 0 0 0 0 0 0 0 0 0 0 0 0 0
Wind_Speed
6 7 5 7 9 6 7 9 9 9 8 9 7 6 6 6 6 6 6 5 5 4 3 3 3 2 2 2 2 2 3 3 2 1 2 2 1 1 2 4 4 4 5 6
3 5 6 8 8 6 7 6 6 5 7 6 3 2 2 3 5 5 5 4 5 4 4 3 3 2 2 1 2 3 4 2 2 2 2 2 2 2 4 4 4 5 6 6
4 5 5 7 8 8 6 5 6 6 7 4 2 3 3 3 4 5 5 4 4 4 3 2 2 2 2 1 2 3 3 3 3 3 3 3 3 4 4 3 4 5 4 5
2 2 5 10 6 6 6 4 5 5 5 6 6 6 5 5 6 5 5 5 5 4 2 1 1 2 2 2 3 4 4 3 3 3 3 3 4 4 3 2 3 4 4 4
3 4 7 7 3 5 5 3 3 5 6 6 4 2 2 5 6 7 6 5 5 4 3 2 2 2 2 3 4 4 4 3 2 3 3 3 3 2 2 3 3 3 3 4
4 4 6 9 5 5 5 2 4 5 6 6 7 3 6 6 6 6 5 5 4 3 3 3 3 3 3 3 4 5 4 3 2 3 3 3 2 1 1 3 3 4 5 4
4 5 8 7 5 5 4 8 7 6 6 6 8 9 6 6 7 7 6 6 5 4 4 4 3 4 4 4 4 4 4 4 3 2 3 3 2 1 2 3 4 5 5 4
3 3 8 6 4 7 10 7 8 8 7 7 8 6 6 8 8 8 6 5 5 4 4 4 4 5 5 5 4 5 5 4 3 2 1 2 3 2 2 4 5 4 4 4
7 8 8 5 7 8 8 8 9 9 7 9 9 9 9 9 9 8 7 6 5 6 6 4 4 6 6 5 5 5 5 4 2 2 2 2 3 3 2 3 3 3 3 3
3 6 5 7 7 6 8 10 11 10 9 11 10 11 10 9 9 8 7 6 5 6 6 5 5 6 6 5 5 6 5 4 2 2 2 3 2 2 3 3 4 3 3 3
6 7 7 7 6 7 8 8 8 9 10 12 13 11 12 11 10 8 7 6 6 7 7 7 6 6 6 6 6 5 5 4 3 3 3 3 3 2 2 1 3 5 4 4
10 10 7 8 8 7 6 8 11 11 9 10 12 13 13 12 11 9 8 7 7 7 7 7 7 7 6 6 6 6 4 4 3 3 3 3 3 2 4 3 3 4 5 5
11 10 9 8 7 6 5 7 10 11 11 10 10 12 14 11 11 10 9 9 9 9 8 8 8 7 7 7 6 6 5 5 4 4 4 4 3 4 2 1 2 1 2 4
10 8 7 8 9 8 8 8 8 10 10 11 11 10 12 11 10 11 12 11 10 9 9 9 9 8 8 7 7 7 6 6 6 5 5 5 5 4 4 4 3 2 4 6
13 11 11 9 8 7 7 6 5 7 9 9 10 11 13 14 14 15 13 11 10 10 10 10 10 9 8 8 8 7 6 4 5 5 5 5 5 5 5 5 5 4 3 4
10 8 7 5 5 4 3 3 3 5 8 10 10 12 15 16 15 14 13 13 13 13 12 12 11 11 9 8 8 6 5 8 7 5 5 5 5 6 6 6 6 6 6 6
7 7 5 4 3 1 1 1 1 1 3 7 10 13 13 13 13 13 14 15 15 14 14 14 13 12 11 10 9 6 5 6 9 5 5 5 5 6 6 7 7 7 8 9
6 6 6 5 4 3 2 2 3 3 2 2 5 8 10 13 16 17 16 15 13 12 13 14 14 12 12 12 10 7 6 6 5 5 5 5 5 5 5 6 7 8 6 7
7 5 5 5 4 3 3 3 3 3 3 2 1 4 8 12 14 15 15 15 15 16 15 15 17 15 13 14 12 8 7 7 6 6 6 6 5 4 5 6 6 6 6 6
14 12 10 8 8 6 5 5 5 5 4 3 3 3 5 9 10 12 15 17 17 16 15 15 16 14 14 14 15 9 9 8 8 6 6 5 5 5 6 6 6 6 7 7
13 13 12 10 9 8 7 7 7 7 7 6 6 7 7 8 10 12 14 15 16 15 15 19 15 13 12 12 15 10 10 10 9 8 7 7 7 7 6 7 6 6 7 7
6 8 9 9 9 9 8 8 9 11 10 9 9 9 9 9 10 11 15 15 15 17 16 14 13 15 16 16 11 11 11 11 9 8 8 8 8 7 8 8 7 7 7 7
8 9 10 11 11 11 11 10 11 11 11 11 11 11 10 9 8 8 11 12 11 17 16 13 17 21 22 16 11 12 12 12 11 10 9 9 8 8 8 9 8 8 7 7
10 11 11 11 11 11 11 11 11 10 10 11 10 11 10 9 9 9 10 15 18 19 16 16 22 23 22 13 11 11 12 11 11 10 10 9 8 8 8 8 8 7 7 8
12 11 10 10 9 8 9 10 10 10 10 8 9 10 9 7 7 8 8 11 17 18 15 17 22 23 18 11 11 12 12 12 11 11 10 9 8 8 8 8 8 8 7 7
10 9 8 8 8 7 7 7 8 8 7 7 7 6 6 5 6 7 6 8 13 17 15 13 15 17 13 12 12 12 11 11 12 11 10 9 9 8 8 8 9 8 7 6
10 8 6 7 7 7 8 8 8 7 7 7 7 6 6 5 4 4 4 4 7 12 12 11 12 12 12 11 11 10 10 9 9 9 9 8 7 7 8 10 8 7 7 6
Wind_Direction
219 242 261 278 281 224 194 194 197 230 238 255 259 256 251 229 215 211 205 197 176 166 157 130 108 93 101 98 76 85 95 93 109 143 156 164 157 89 54 64 72 68 58 40
278 266 280 286 277 232 206 198 214 235 256 239 235 244 265 211 198 207 209 191 167 157 147 133 121 111 108 111 95 103 105 99 87 97 91 89 103 85 69 70 78 76 66 54
252 281 318 278 239 207 201 201 192 220 240 221 215 221 222 211 201 192 185 174 156 146 146 149 153 149 153 163 132 121 120 106 90 96 83 71 83 81 78 83 91 86 77 61
218 325 251 249 242 187 179 197 190 203 210 197 207 208 203 191 183 186 175 161 154 149 153 175 181 175 172 154 140 130 120 114 107 105 100 87 82 79 74 88 100 95 85 67
165 218 264 274 241 173 163 224 212 187 196 203 184 136 260 211 179 178 173 167 169 171 175 185 192 191 170 155 144 135 133 134 132 126 123 112 98 81 63 79 85 88 89 73
175 204 240 253 231 161 113 249 238 174 187 188 147 171 250 218 176 168 163 162 168 170 156 166 191 171 152 150 147 152 156 158 144 135 134 137 135 104 66 83 87 89 79 66
206 234 261 248 192 131 157 231 218 197 202 189 188 207 217 173 165 166 169 177 174 166 164 182 179 147 148 151 160 161 147 130 111 119 143 146 138 113 101 96 90 88 80 56
194 225 259 240 186 183 211 204 199 206 208 194 196 190 171 162 164 169 177 184 174 162 172 181 164 142 143 153 158 139 127 116 102 88 123 137 130 117 110 114 111 104 91 64
196 215 240 237 225 218 181 184 201 202 199 174 169 176 175 174 175 181 187 191 176 165 169 176 166 150 151 165 148 132 126 124 116 89 74 110 127 129 121 121 127 129 120 109
256 264 267 259 248 220 199 198 199 192 183 171 176 182 180 181 183 185 188 186 171 161 165 177 175 164 166 167 152 140 146 152 146 121 92 83 91 111 127 140 144 146 147 144
260 270 286 281 265 243 231 215 198 191 184 181 177 180 182 183 184 186 184 179 167 167 175 182 178 175 175 167 154 156 165 172 168 151 133 107 87 81 114 131 172 161 167 161
245 240 230 252 262 261 241 220 202 194 193 185 177 179 180 183 184 182 180 173 169 171 175 181 177 180 184 175 163 161 170 179 177 167 158 146 130 85 52 91 101 134 159 159
231 237 227 238 256 259 244 231 212 198 190 185 180 176 176 179 183 179 176 171 174 177 177 176 176 184 190 183 173 172 179 183 181 180 176 171 165 160 158 63 48 90 157 175
237 235 248 255 255 258 256 250 223 207 198 185 178 174 175 173 174 178 181 182 178 174 174 175 179 191 195 186 181 186 188 192 187 187 188 186 187 185 178 175 191 244 248 233
244 233 232 241 253 266 267 263 239 216 205 195 181 175 176 178 182 186 185 179 173 173 176 179 185 197 196 186 186 190 189 192 193 191 193 195 195 195 194 193 193 202 215 239
237 238 230 221 230 257 277 270 237 228 211 200 191 188 187 187 186 185 182 177 174 181 183 183 191 199 193 188 189 191 195 203 193 191 195 198 200 201 206 203 199 198 207 215
228 233 215 190 169 130 59 33 104 213 217 210 208 201 192 186 184 186 188 187 186 186 184 186 193 195 192 190 189 194 197 207 207 195 196 198 198 202 205 204 203 206 213 211
196 191 172 160 157 146 115 75 67 70 68 235 224 208 195 190 192 195 194 190 188 188 190 191 191 191 193 194 193 195 194 198 201 204 206 203 201 199 193 192 197 200 212 213
46 76 91 89 86 81 62 39 24 17 17 12 326 221 217 212 207 201 193 188 191 196 200 197 192 190 195 199 194 193 194 195 200 209 209 210 206 198 195 193 194 195 195 194
13 14 24 33 37 34 21 4 357 348 339 338 312 272 246 235 223 210 200 199 203 202 196 193 194 196 198 201 199 198 200 199 199 204 208 206 205 206 202 200 196 195 196 197
353 352 356 358 354 349 341 332 323 310 302 297 288 273 258 247 233 219 209 213 214 203 194 191 194 198 200 201 201 201 203 204 203 203 205 208 211 212 212 211 207 202 199 198
309 312 313 310 304 299 296 295 288 282 279 275 272 270 265 260 248 232 221 218 213 198 195 197 199 200 200 200 202 202 204 205 207 206 206 207 208 210 213 213 212 209 202 196
266 261 260 260 259 261 263 264 265 265 264 264 264 263 259 257 253 241 235 227 213 195 195 199 199 197 197 199 202 203 205 206 207 209 209 209 210 210 212 213 210 204 198 193
279 273 265 260 258 258 260 259 257 259 259 260 260 259 258 262 265 255 243 225 211 197 198 201 196 194 194 201 202 203 206 208 210 210 210 210 210 209 208 207 204 199 191 184
287 285 283 280 275 270 268 265 263 262 262 261 260 261 260 257 262 266 251 222 201 190 197 198 192 192 194 199 200 203 206 209 211 210 209 208 208 205 202 198 193 185 178 174
288 285 280 275 277 281 279 274 268 264 262 263 264 260 260 263 274 274 254 221 196 191 195 198 196 194 196 195 199 202 204 207 209 210 208 205 203 196 191 186 178 172 169 170
292 289 288 290 291 289 288 283 275 268 260 256 261 260 254 258 275 291 284 244 206 198 199 195 189 187 188 190 194 197 199 201 200 200 198 195 188 181 177 170 166 164 165 168